timestamp,wind_dir_avg,wind_spd_avg,wind_spd_max_dir,wind_spd_gust,battery_voltage,lat,long
2023-01-31 00:04:01+00:00,257.0,4.34,262.0,5.15,12.25,47.59359,-54.27349
2023-01-31 00:14:00+00:00,262.0,8.45,263.0,9.35,12.25,47.59359,-54.27349
2023-01-31 00:24:00+00:00,258.0,4.75,265.0,7.75,12.25,47.59359,-54.27349
2023-01-31 00:34:00+00:00,239.0,3.6,240.0,4.09,12.25,47.59359,-54.27349
2023-01-31 00:44:00+00:00,239.0,5.24,252.0,7.15,12.25,47.59359,-54.27349
2023-01-31 00:54:00+00:00,258.0,9.46,262.0,10.07,12.25,47.59359,-54.27349
2023-01-31 01:04:00+00:00,238.0,4.69,240.0,5.46,12.25,47.59359,-54.27349
2023-01-31 01:14:00+00:00,241.0,4.95,240.0,5.85,12.17,47.59359,-54.27349
2023-01-31 01:24:00+00:00,248.0,4.14,246.0,4.48,12.17,47.59359,-54.27349
2023-01-31 01:34:00+00:00,241.0,4.51,242.0,4.76,12.17,47.59359,-54.27349
2023-01-31 01:44:00+00:00,261.0,4.3,264.0,5.44,12.17,47.59359,-54.27349
2023-01-31 01:54:00+00:00,263.0,8.68,263.0,9.29,12.17,47.59359,-54.27349
2023-01-31 02:04:00+00:00,236.0,3.29,235.0,3.84,12.17,47.59359,-54.27349
2023-01-31 02:14:01+00:00,252.0,3.99,250.0,4.29,12.17,47.59359,-54.27349
2023-01-31 02:24:01+00:00,250.0,3.92,248.0,4.09,12.17,47.59359,-54.27349
2023-01-31 02:34:01+00:00,239.0,3.16,240.0,3.46,12.17,47.59359,-54.27349
2023-01-31 02:44:01+00:00,266.0,3.7,268.0,4.07,12.17,47.59359,-54.27349
2023-01-31 02:54:01+00:00,270.0,3.4,268.0,3.68,12.17,47.59359,-54.27349
2023-01-31 03:04:01+00:00,279.0,3.73,280.0,3.96,12.17,47.59359,-54.27349
2023-01-31 03:14:00+00:00,286.0,3.79,291.0,4.21,12.17,47.59359,-54.27349
2023-01-31 03:24:00+00:00,284.0,2.31,282.0,3.08,12.17,47.59359,-54.27349
2023-01-31 03:34:00+00:00,0.0,0.79,286.0,2.93,12.17,47.59359,-54.27349
2023-01-31 03:44:00+00:00,308.0,3.11,305.0,3.65,12.17,47.59359,-54.27349
2023-01-31 03:54:00+00:00,58.0,1.91,55.0,2.23,12.17,47.59359,-54.27349
2023-01-31 04:04:00+00:00,65.0,1.92,66.0,2.32,12.17,47.59359,-54.27349
2023-01-31 04:14:01+00:00,7.0,1.57,53.0,2.63,12.09,47.59359,-54.27349
2023-01-31 04:24:01+00:00,337.0,1.21,62.0,2.08,12.09,47.59359,-54.27349
2023-01-31 04:34:01+00:00,28.0,1.13,69.0,2.68,12.09,47.59359,-54.27349
2023-01-31 04:44:01+00:00,321.0,2.82,307.0,3.85,12.09,47.59359,-54.27349
2023-01-31 04:54:01+00:00,35.0,3.46,34.0,3.87,12.09,47.59359,-54.27349
2023-01-31 05:04:01+00:00,41.0,2.74,44.0,2.98,12.09,47.59359,-54.27349
2023-01-31 05:14:00+00:00,58.0,2.11,61.0,2.53,12.17,47.59359,-54.27349
2023-01-31 05:24:00+00:00,342.0,0.91,284.0,2.67,12.17,47.59359,-54.27349
2023-01-31 05:34:00+00:00,83.0,0.58,91.0,0.74,12.17,47.59359,-54.27349
2023-01-31 05:44:00+00:00,48.0,0.78,57.0,1.09,12.17,47.59359,-54.27349
2023-01-31 05:54:00+00:00,350.0,1.29,340.0,1.55,12.17,47.59359,-54.27349
2023-01-31 06:04:00+00:00,7.0,2.16,11.0,2.5,12.17,47.59359,-54.27349
2023-01-31 06:14:00+00:00,347.0,1.26,349.0,1.46,12.09,47.59359,-54.27349
2023-01-31 06:24:00+00:00,356.0,2.78,29.0,3.46,12.09,47.59359,-54.27349
2023-01-31 06:34:00+00:00,344.0,2.88,344.0,3.28,12.09,47.59359,-54.27349
2023-01-31 06:44:00+00:00,7.0,3.98,344.0,4.73,12.09,47.59359,-54.27349
2023-01-31 06:54:00+00:00,2.0,4.83,348.0,5.88,12.09,47.59359,-54.27349
2023-01-31 07:04:00+00:00,338.0,4.84,329.0,5.59,12.09,47.59359,-54.27349
2023-01-31 07:14:01+00:00,349.0,4.21,342.0,4.65,12.09,47.59359,-54.27349
2023-01-31 07:24:01+00:00,350.0,3.71,342.0,4.23,12.09,47.59359,-54.27349
2023-01-31 07:34:01+00:00,349.0,3.14,344.0,3.6,12.09,47.59359,-54.27349
2023-01-31 07:44:01+00:00,2.0,1.53,13.0,1.77,12.09,47.59359,-54.27349
2023-01-31 07:54:01+00:00,305.0,1.31,306.0,1.57,12.09,47.59359,-54.27349
2023-01-31 08:04:01+00:00,340.0,1.6,337.0,2.11,12.09,47.59359,-54.27349
2023-01-31 08:14:01+00:00,37.0,1.63,33.0,1.98,12.09,47.59359,-54.27349
2023-01-31 08:24:01+00:00,43.0,1.46,43.0,1.74,12.09,47.59359,-54.27349
2023-01-31 08:34:01+00:00,26.0,1.57,30.0,1.83,12.09,47.59359,-54.27349
2023-01-31 08:44:01+00:00,338.0,1.84,328.0,2.31,12.09,47.59359,-54.27349
2023-01-31 08:54:01+00:00,355.0,1.42,3.0,1.98,12.09,47.59359,-54.27349
2023-01-31 09:04:01+00:00,316.0,1.67,309.0,2.09,12.09,47.59359,-54.27349
2023-01-31 09:14:01+00:00,327.0,2.68,327.0,3.33,12.09,47.59359,-54.27349
2023-01-31 09:24:01+00:00,324.0,2.21,319.0,2.45,12.09,47.59359,-54.27349
2023-01-31 09:34:01+00:00,323.0,2.98,321.0,3.58,12.09,47.59359,-54.27349
2023-01-31 09:44:01+00:00,311.0,4.35,313.0,4.74,12.09,47.59359,-54.27349
2023-01-31 09:54:01+00:00,311.0,3.32,307.0,4.06,12.09,47.59359,-54.27349
2023-01-31 10:04:01+00:00,301.0,3.97,303.0,4.24,12.09,47.59359,-54.27349
2023-01-31 10:14:01+00:00,293.0,3.93,294.0,4.28,12.09,47.59359,-54.27349
2023-01-31 10:24:01+00:00,295.0,4.47,297.0,4.71,12.09,47.59359,-54.27349
2023-01-31 10:34:01+00:00,293.0,3.98,296.0,4.36,12.09,47.59359,-54.27349
2023-01-31 10:44:01+00:00,299.0,3.23,296.0,3.98,12.09,47.59359,-54.27349
2023-01-31 10:54:01+00:00,308.0,2.75,307.0,3.24,12.09,47.59359,-54.27349
2023-01-31 11:04:01+00:00,341.0,2.09,335.0,2.37,12.09,47.59359,-54.27349
2023-01-31 12:14:01+00:00,257.0,1.27,242.0,1.86,12.33,47.59359,-54.27349
2023-01-31 12:24:01+00:00,236.0,1.29,231.0,1.58,12.33,47.59359,-54.27349
2023-01-31 12:34:01+00:00,185.0,0.62,211.0,0.81,12.33,47.59359,-54.27349
2023-01-31 12:44:01+00:00,208.0,1.64,209.0,1.95,12.33,47.59359,-54.27349
2023-01-31 12:54:01+00:00,234.0,2.68,239.0,2.87,12.33,47.59359,-54.27349
2023-01-31 13:04:01+00:00,242.0,2.71,248.0,3.4,12.33,47.59359,-54.27349
2023-01-31 13:14:00+00:00,263.0,2.72,272.0,3.23,12.41,47.59359,-54.27349
2023-01-31 13:24:00+00:00,253.0,5.89,259.0,9.27,12.41,47.59359,-54.27349
2023-01-31 13:34:00+00:00,233.0,4.49,235.0,4.89,12.41,47.59359,-54.27349
2023-01-31 13:44:00+00:00,258.0,4.15,261.0,6.49,12.41,47.59359,-54.27349
2023-01-31 13:54:00+00:00,241.0,4.74,245.0,5.45,12.41,47.59359,-54.27349
2023-01-31 14:04:00+00:00,261.0,4.81,264.0,8.71,12.41,47.59359,-54.27349
2023-01-31 14:14:00+00:00,268.0,3.89,278.0,4.42,12.65,47.59359,-54.27349
2023-01-31 14:24:00+00:00,260.0,5.18,267.0,9.24,12.65,47.59359,-54.27349
2023-01-31 14:34:00+00:00,265.0,5.84,268.0,9.45,12.65,47.59359,-54.27349
2023-01-31 14:44:00+00:00,271.0,8.51,273.0,10.28,12.65,47.59359,-54.27349
2023-01-31 14:54:00+00:00,265.0,7.37,268.0,9.48,12.65,47.59359,-54.27349
2023-01-31 15:04:00+00:00,263.0,4.45,262.0,5.78,12.65,47.59359,-54.27349
2023-01-31 15:14:00+00:00,274.0,4.85,275.0,8.81,12.81,47.59359,-54.27349
2023-01-31 15:24:00+00:00,261.0,3.77,265.0,4.17,12.81,47.59359,-54.27349
2023-01-31 15:34:00+00:00,243.0,4.37,232.0,4.78,12.81,47.59359,-54.27349
2023-01-31 15:44:00+00:00,250.0,4.65,253.0,5.81,12.81,47.59359,-54.27349
2023-01-31 15:54:00+00:00,257.0,4.09,255.0,4.61,12.81,47.59359,-54.27349
2023-01-31 16:04:00+00:00,253.0,3.98,252.0,4.45,12.81,47.59359,-54.27349
2023-01-31 16:14:00+00:00,241.0,4.64,242.0,5.16,13.53,47.59359,-54.27349
2023-01-31 16:24:00+00:00,231.0,4.25,233.0,4.64,13.53,47.59359,-54.27349
2023-01-31 16:34:00+00:00,232.0,3.74,225.0,4.38,13.53,47.59359,-54.27349
2023-01-31 16:44:00+00:00,236.0,3.65,246.0,4.85,13.53,47.59359,-54.27349
2023-01-31 16:54:00+00:00,230.0,4.26,236.0,5.71,13.53,47.59359,-54.27349
2023-01-31 17:04:00+00:00,231.0,3.84,219.0,4.65,13.53,47.59359,-54.27349
2023-01-31 17:14:00+00:00,219.0,3.64,219.0,4.03,14.4,47.59359,-54.27349
2023-01-31 17:24:00+00:00,239.0,3.23,239.0,3.6,14.4,47.59359,-54.27349
2023-01-31 17:34:00+00:00,254.0,3.26,249.0,3.58,14.4,47.59359,-54.27349
2023-01-31 17:44:00+00:00,256.0,2.14,247.0,3.19,14.4,47.59359,-54.27349
2023-01-31 17:54:00+00:00,212.0,2.49,228.0,3.56,14.4,47.59359,-54.27349
2023-01-31 18:04:00+00:00,157.0,2.25,146.0,3.2,14.4,47.59359,-54.27349
2023-01-31 18:14:01+00:00,199.0,2.53,227.0,3.72,13.37,47.59359,-54.27349
2023-01-31 18:24:01+00:00,154.0,3.47,148.0,4.01,13.37,47.59359,-54.27349
2023-01-31 18:34:01+00:00,223.0,4.61,221.0,5.37,13.37,47.59359,-54.27349
2023-01-31 18:44:01+00:00,221.0,4.73,221.0,5.4,13.37,47.59359,-54.27349
2023-01-31 18:54:01+00:00,201.0,4.31,213.0,5.33,13.37,47.59359,-54.27349
2023-01-31 19:04:01+00:00,194.0,4.46,203.0,5.27,13.37,47.59359,-54.27349
2023-01-31 19:14:01+00:00,194.0,4.48,166.0,5.97,12.81,47.59359,-54.27349
2023-01-31 19:24:01+00:00,131.0,1.11,135.0,2.43,12.81,47.59359,-54.27349
2023-01-31 19:34:01+00:00,49.0,1.14,65.0,2.19,12.81,47.59359,-54.27349
2023-01-31 19:44:01+00:00,292.0,4.36,296.0,4.55,12.81,47.59359,-54.27349
2023-01-31 19:54:01+00:00,277.0,4.28,284.0,4.59,12.81,47.59359,-54.27349
2023-01-31 20:04:01+00:00,294.0,4.48,294.0,4.87,12.81,47.59359,-54.27349
2023-01-31 21:14:00+00:00,43.0,1.88,52.0,2.74,12.41,47.59359,-54.27349
2023-01-31 21:24:00+00:00,18.0,1.76,46.0,2.44,12.41,47.59359,-54.27349
2023-01-31 21:34:00+00:00,321.0,1.5,314.0,1.94,12.41,47.59359,-54.27349
2023-01-31 21:44:00+00:00,38.0,1.28,46.0,1.54,12.41,47.59359,-54.27349
2023-01-31 21:54:00+00:00,85.0,0.94,80.0,1.14,12.41,47.59359,-54.27349
2023-01-31 22:04:00+00:00,37.0,0.45,49.0,0.67,12.41,47.59359,-54.27349
2023-01-31 22:14:00+00:00,28.0,0.37,41.0,0.55,12.41,47.59359,-54.27349
2023-01-31 22:24:00+00:00,75.0,0.82,80.0,1.0,12.41,47.59359,-54.27349
2023-01-31 22:34:00+00:00,223.0,1.25,224.0,1.52,12.41,47.59359,-54.27349
2023-01-31 22:44:00+00:00,219.0,1.57,223.0,1.78,12.41,47.59359,-54.27349
2023-01-31 22:54:00+00:00,228.0,1.72,226.0,1.94,12.41,47.59359,-54.27349
2023-01-31 23:04:00+00:00,262.0,1.52,258.0,1.81,12.41,47.59359,-54.27349
2023-01-31 23:14:00+00:00,201.0,2.63,201.0,3.02,12.33,47.59359,-54.27349
2023-01-31 23:24:00+00:00,152.0,2.71,155.0,2.97,12.33,47.59359,-54.27349
2023-01-31 23:34:00+00:00,130.0,2.3,129.0,2.55,12.33,47.59359,-54.27349
2023-01-31 23:44:00+00:00,114.0,2.08,109.0,2.8,12.33,47.59359,-54.27349
2023-01-31 23:54:00+00:00,105.0,2.17,128.0,2.82,12.33,47.59359,-54.27349
